Year,Month,Day,Hour,Minute,Value (Times are PST for temperature in C)
2014,07,13,00,00,19.10
2014,07,13,00,01,19.00
2014,07,13,00,02,18.90
2014,07,13,00,03,18.90
2014,07,13,00,04,18.90
2014,07,13,00,05,18.90
2014,07,13,00,06,18.90
2014,07,13,00,07,18.90
2014,07,13,00,08,18.90
2014,07,13,00,09,18.90
2014,07,13,00,10,18.80
2014,07,13,00,11,18.80
2014,07,13,00,12,18.80
2014,07,13,00,13,18.80
2014,07,13,00,14,18.70
2014,07,13,00,15,18.70
2014,07,13,00,16,18.70
2014,07,13,00,17,18.70
2014,07,13,00,18,18.70
2014,07,13,00,19,18.70
2014,07,13,00,20,18.60
2014,07,13,00,21,18.60
2014,07,13,00,22,18.60
2014,07,13,00,23,18.60
2014,07,13,00,24,18.60
2014,07,13,00,25,18.50
2014,07,13,00,26,18.50
2014,07,13,00,27,18.50
2014,07,13,00,28,18.50
2014,07,13,00,29,18.50
2014,07,13,00,30,18.50
2014,07,13,00,31,18.50
2014,07,13,00,32,18.50
2014,07,13,00,33,18.40
2014,07,13,00,34,18.40
2014,07,13,00,35,18.40
2014,07,13,00,36,18.40
2014,07,13,00,37,18.30
2014,07,13,00,38,18.30
2014,07,13,00,39,18.30
2014,07,13,00,40,18.20
2014,07,13,00,41,18.20
2014,07,13,00,42,18.20
2014,07,13,00,43,18.20
2014,07,13,00,44,18.20
2014,07,13,00,45,18.20
2014,07,13,00,46,18.20
2014,07,13,00,47,18.10
2014,07,13,00,48,18.10
2014,07,13,00,49,18.10
2014,07,13,00,50,18.10
2014,07,13,00,51,18.00
2014,07,13,00,52,17.90
2014,07,13,00,53,17.90
2014,07,13,00,54,17.90
2014,07,13,00,55,17.90
2014,07,13,00,56,17.80
2014,07,13,00,57,17.80
2014,07,13,00,58,17.80
2014,07,13,00,59,17.80
2014,07,13,01,00,17.70
2014,07,13,01,01,17.70
2014,07,13,01,02,17.70
2014,07,13,01,03,17.70
2014,07,13,01,04,17.70
2014,07,13,01,05,17.60
2014,07,13,01,06,17.60
2014,07,13,01,07,17.60
2014,07,13,01,08,17.60
2014,07,13,01,09,17.50
2014,07,13,01,10,17.50
2014,07,13,01,11,17.50
2014,07,13,01,12,17.50
2014,07,13,01,13,17.40
2014,07,13,01,14,17.40
2014,07,13,01,15,17.40
2014,07,13,01,16,17.40
2014,07,13,01,17,17.40
2014,07,13,01,18,17.40
2014,07,13,01,19,17.40
2014,07,13,01,20,17.40
2014,07,13,01,21,17.30
2014,07,13,01,22,17.30
2014,07,13,01,23,17.30
2014,07,13,01,24,17.30
2014,07,13,01,25,17.30
2014,07,13,01,26,17.30
2014,07,13,01,27,17.30
2014,07,13,01,28,17.20
2014,07,13,01,29,17.20
2014,07,13,01,30,17.20
2014,07,13,01,31,17.20
2014,07,13,01,32,17.20
2014,07,13,01,33,17.20
2014,07,13,01,34,17.20
2014,07,13,01,35,17.20
2014,07,13,01,36,17.20
2014,07,13,01,37,17.20
2014,07,13,01,38,17.20
2014,07,13,01,39,17.20
2014,07,13,01,40,17.20
2014,07,13,01,41,17.10
2014,07,13,01,42,17.10
2014,07,13,01,43,17.10
2014,07,13,01,44,17.10
2014,07,13,01,45,17.10
2014,07,13,01,46,17.10
2014,07,13,01,47,17.10
2014,07,13,01,48,17.10
2014,07,13,01,49,17.10
2014,07,13,01,50,17.10
2014,07,13,01,51,17.10
2014,07,13,01,52,17.10
2014,07,13,01,53,17.10
2014,07,13,01,54,17.10
2014,07,13,01,55,17.10
2014,07,13,01,56,17.00
2014,07,13,01,57,17.00
2014,07,13,01,58,17.00
2014,07,13,01,59,17.00
2014,07,13,02,00,17.00
2014,07,13,02,01,17.00
2014,07,13,02,02,17.00
2014,07,13,02,03,17.00
2014,07,13,02,04,17.00
2014,07,13,02,05,17.00
2014,07,13,02,06,17.00
2014,07,13,02,07,17.00
2014,07,13,02,08,17.00
2014,07,13,02,09,16.90
2014,07,13,02,10,16.90
2014,07,13,02,11,16.90
2014,07,13,02,12,16.90
2014,07,13,02,13,16.90
2014,07,13,02,14,16.90
2014,07,13,02,15,16.80
2014,07,13,02,16,16.80
2014,07,13,02,17,16.80
2014,07,13,02,18,16.80
2014,07,13,02,19,16.80
2014,07,13,02,20,16.80
2014,07,13,02,21,16.80
2014,07,13,02,22,16.80
2014,07,13,02,23,16.80
2014,07,13,02,24,16.80
2014,07,13,02,25,16.80
2014,07,13,02,26,16.70
2014,07,13,02,27,16.70
2014,07,13,02,28,16.70
2014,07,13,02,29,16.70
2014,07,13,02,30,16.70
2014,07,13,02,31,16.70
2014,07,13,02,32,16.70
2014,07,13,02,33,16.70
2014,07,13,02,34,16.70
2014,07,13,02,35,16.60
2014,07,13,02,36,16.60
2014,07,13,02,37,16.60
2014,07,13,02,38,16.60
2014,07,13,02,39,16.60
2014,07,13,02,40,16.60
2014,07,13,02,41,16.60
2014,07,13,02,42,16.60
2014,07,13,02,43,16.40
2014,07,13,02,44,16.40
2014,07,13,02,45,16.40
2014,07,13,02,46,16.40
2014,07,13,02,47,16.40
2014,07,13,02,48,16.40
2014,07,13,02,49,16.40
2014,07,13,02,50,16.40
2014,07,13,02,51,16.40
2014,07,13,02,52,16.40
2014,07,13,02,53,16.40
2014,07,13,02,54,16.40
2014,07,13,02,55,16.40
2014,07,13,02,56,16.30
2014,07,13,02,57,16.30
2014,07,13,02,58,16.30
2014,07,13,02,59,16.30
2014,07,13,03,00,16.30
2014,07,13,03,01,16.30
2014,07,13,03,02,16.30
2014,07,13,03,03,16.30
2014,07,13,03,04,16.30
2014,07,13,03,05,16.30
2014,07,13,03,06,16.30
2014,07,13,03,07,16.30
2014,07,13,03,08,16.30
2014,07,13,03,09,16.30
2014,07,13,03,10,16.30
2014,07,13,03,11,16.30
2014,07,13,03,12,16.30
2014,07,13,03,13,16.30
2014,07,13,03,14,16.30
2014,07,13,03,15,16.30
2014,07,13,03,16,16.30
2014,07,13,03,17,16.30
2014,07,13,03,18,16.30
2014,07,13,03,19,16.30
2014,07,13,03,20,16.30
2014,07,13,03,21,16.40
2014,07,13,03,22,16.40
2014,07,13,03,23,16.40
2014,07,13,03,24,16.40
2014,07,13,03,25,16.40
2014,07,13,03,26,16.40
2014,07,13,03,27,16.40
2014,07,13,03,28,16.40
2014,07,13,03,29,16.40
2014,07,13,03,30,16.40
2014,07,13,03,31,16.40
2014,07,13,03,32,16.40
2014,07,13,03,33,16.40
2014,07,13,03,34,16.40
2014,07,13,03,35,16.40
2014,07,13,03,36,16.40
2014,07,13,03,37,16.40
2014,07,13,03,38,16.40
2014,07,13,03,39,16.40
2014,07,13,03,40,16.40
2014,07,13,03,41,16.30
2014,07,13,03,42,16.30
2014,07,13,03,43,16.30
2014,07,13,03,44,16.30
2014,07,13,03,45,16.30
2014,07,13,03,46,16.30
2014,07,13,03,47,16.20
2014,07,13,03,48,16.20
2014,07,13,03,49,16.20
2014,07,13,03,50,16.10
2014,07,13,03,51,16.10
2014,07,13,03,52,16.10
2014,07,13,03,53,16.10
2014,07,13,03,54,16.00
2014,07,13,03,55,15.90
2014,07,13,03,56,15.90
2014,07,13,03,57,15.90
2014,07,13,03,58,15.90
2014,07,13,03,59,15.80
2014,07,13,04,00,15.80
2014,07,13,04,01,15.80
2014,07,13,04,02,15.80
2014,07,13,04,03,15.80
2014,07,13,04,04,15.80
2014,07,13,04,05,15.80
2014,07,13,04,06,15.80
2014,07,13,04,07,15.80
2014,07,13,04,08,15.80
2014,07,13,04,09,15.80
2014,07,13,04,10,15.70
2014,07,13,04,11,15.70
2014,07,13,04,12,15.70
2014,07,13,04,13,15.70
2014,07,13,04,14,15.70
2014,07,13,04,15,15.70
2014,07,13,04,16,15.70
2014,07,13,04,17,15.70
2014,07,13,04,18,15.70
2014,07,13,04,19,15.70
2014,07,13,04,20,15.70
2014,07,13,04,21,15.70
2014,07,13,04,22,15.70
2014,07,13,04,23,15.70
2014,07,13,04,24,15.70
2014,07,13,04,25,15.70
2014,07,13,04,26,15.70
2014,07,13,04,27,15.60
2014,07,13,04,28,15.60
2014,07,13,04,29,15.60
2014,07,13,04,30,15.50
2014,07,13,04,31,15.50
2014,07,13,04,32,15.50
2014,07,13,04,33,15.50
2014,07,13,04,34,15.40
2014,07,13,04,35,15.40
2014,07,13,04,36,15.40
2014,07,13,04,37,15.30
2014,07,13,04,38,15.30
2014,07,13,04,39,15.30
2014,07,13,04,40,15.30
2014,07,13,04,41,15.30
2014,07,13,04,42,15.30
2014,07,13,04,43,15.30
2014,07,13,04,44,15.30
2014,07,13,04,45,15.30
2014,07,13,04,46,15.30
2014,07,13,04,47,15.30
2014,07,13,04,48,15.30
2014,07,13,04,49,15.30
2014,07,13,04,50,15.30
2014,07,13,04,51,15.30
2014,07,13,04,52,15.30
2014,07,13,04,53,15.20
2014,07,13,04,54,15.20
2014,07,13,04,55,15.20
2014,07,13,04,56,15.20
2014,07,13,04,57,15.20
2014,07,13,04,58,15.20
2014,07,13,04,59,15.10
2014,07,13,05,00,15.10
2014,07,13,05,01,15.10
2014,07,13,05,02,15.10
2014,07,13,05,03,15.10
2014,07,13,05,04,15.10
2014,07,13,05,05,15.10
2014,07,13,05,06,15.10
2014,07,13,05,07,15.10
2014,07,13,05,08,15.00
2014,07,13,05,09,15.00
2014,07,13,05,10,15.00
2014,07,13,05,11,15.00
2014,07,13,05,12,15.00
2014,07,13,05,13,15.00
2014,07,13,05,14,15.00
2014,07,13,05,15,15.00
2014,07,13,05,16,15.00
2014,07,13,05,17,15.00
2014,07,13,05,18,15.00
2014,07,13,05,19,15.00
2014,07,13,05,20,15.00
2014,07,13,05,21,15.00
2014,07,13,05,22,15.00
2014,07,13,05,23,15.00
2014,07,13,05,24,15.00
2014,07,13,05,25,15.00
2014,07,13,05,26,15.00
2014,07,13,05,27,15.00
2014,07,13,05,28,15.00
2014,07,13,05,29,15.00
2014,07,13,05,30,15.00
2014,07,13,05,31,15.00
2014,07,13,05,32,15.00
2014,07,13,05,33,15.10
2014,07,13,05,34,15.10
2014,07,13,05,35,15.10
2014,07,13,05,36,15.10
2014,07,13,05,37,15.10
2014,07,13,05,38,15.10
2014,07,13,05,39,15.10
2014,07,13,05,40,15.10
2014,07,13,05,41,15.10
2014,07,13,05,42,15.10
2014,07,13,05,43,15.10
2014,07,13,05,44,15.10
2014,07,13,05,45,15.10
2014,07,13,05,46,15.10
2014,07,13,05,47,15.10
2014,07,13,05,48,15.10
2014,07,13,05,49,15.10
2014,07,13,05,50,15.10
2014,07,13,05,51,15.10
2014,07,13,05,52,15.10
2014,07,13,05,53,15.10
2014,07,13,05,54,15.10
2014,07,13,05,55,15.10
2014,07,13,05,56,15.10
2014,07,13,05,57,15.10
2014,07,13,05,58,15.10
2014,07,13,05,59,15.10
2014,07,13,06,00,15.10
2014,07,13,06,01,15.10
2014,07,13,06,02,15.10
2014,07,13,06,03,15.10
2014,07,13,06,04,15.10
2014,07,13,06,05,15.10
2014,07,13,06,06,15.10
2014,07,13,06,07,15.10
2014,07,13,06,08,15.10
2014,07,13,06,09,15.10
2014,07,13,06,10,15.10
2014,07,13,06,11,15.10
2014,07,13,06,12,15.10
2014,07,13,06,13,15.10
2014,07,13,06,14,15.10
2014,07,13,06,15,15.10
2014,07,13,06,16,15.10
2014,07,13,06,17,15.10
2014,07,13,06,18,15.10
2014,07,13,06,19,15.10
2014,07,13,06,20,15.10
2014,07,13,06,21,15.10
2014,07,13,06,22,15.10
2014,07,13,06,23,15.10
2014,07,13,06,24,15.10
2014,07,13,06,25,15.10
2014,07,13,06,26,15.10
2014,07,13,06,27,15.10
2014,07,13,06,28,15.10
2014,07,13,06,29,15.10
2014,07,13,06,30,15.10
2014,07,13,06,31,15.10
2014,07,13,06,32,15.10
2014,07,13,06,33,15.10
2014,07,13,06,34,15.10
2014,07,13,06,35,15.10
2014,07,13,06,36,15.20
2014,07,13,06,37,15.20
2014,07,13,06,38,15.20
2014,07,13,06,39,15.20
2014,07,13,06,40,15.20
2014,07,13,06,41,15.20
2014,07,13,06,42,15.20
2014,07,13,06,43,15.20
2014,07,13,06,44,15.30
2014,07,13,06,45,15.30
2014,07,13,06,46,15.30
2014,07,13,06,47,15.30
2014,07,13,06,48,15.30
2014,07,13,06,49,15.30
2014,07,13,06,50,15.30
2014,07,13,06,51,15.30
2014,07,13,06,52,15.30
2014,07,13,06,53,15.30
2014,07,13,06,54,15.30
2014,07,13,06,55,15.40
2014,07,13,06,56,15.40
2014,07,13,06,57,15.40
2014,07,13,06,58,15.40
2014,07,13,06,59,15.50
2014,07,13,07,00,15.50
2014,07,13,07,01,15.50
2014,07,13,07,02,15.50
2014,07,13,07,03,15.50
2014,07,13,07,04,15.60
2014,07,13,07,05,15.60
2014,07,13,07,06,15.60
2014,07,13,07,07,15.60
2014,07,13,07,08,15.60
2014,07,13,07,09,15.60
2014,07,13,07,10,15.60
2014,07,13,07,11,15.60
2014,07,13,07,12,15.60
2014,07,13,07,13,15.60
2014,07,13,07,14,15.60
2014,07,13,07,15,15.70
2014,07,13,07,16,15.70
2014,07,13,07,17,15.70
2014,07,13,07,18,15.70
2014,07,13,07,19,15.80
2014,07,13,07,20,15.80
2014,07,13,07,21,15.80
2014,07,13,07,22,15.80
2014,07,13,07,23,15.80
2014,07,13,07,24,15.80
2014,07,13,07,25,15.80
2014,07,13,07,26,15.90
2014,07,13,07,27,15.90
2014,07,13,07,28,15.90
2014,07,13,07,29,15.90
2014,07,13,07,30,16.00
2014,07,13,07,31,16.10
2014,07,13,07,32,16.10
2014,07,13,07,33,16.10
2014,07,13,07,34,16.10
2014,07,13,07,35,16.10
2014,07,13,07,36,16.20
2014,07,13,07,37,16.20
2014,07,13,07,38,16.30
2014,07,13,07,39,16.30
2014,07,13,07,40,16.40
2014,07,13,07,41,16.40
2014,07,13,07,42,16.40
2014,07,13,07,43,16.50
2014,07,13,07,44,16.60
2014,07,13,07,45,16.60
2014,07,13,07,46,16.70
2014,07,13,07,47,16.70
2014,07,13,07,48,16.70
2014,07,13,07,49,16.80
2014,07,13,07,50,16.80
2014,07,13,07,51,16.90
2014,07,13,07,52,16.90
2014,07,13,07,53,17.00
2014,07,13,07,54,17.00
2014,07,13,07,55,17.10
2014,07,13,07,56,17.20
2014,07,13,07,57,17.30
2014,07,13,07,58,17.30
2014,07,13,07,59,17.30
2014,07,13,08,00,17.40
2014,07,13,08,01,17.50
2014,07,13,08,02,17.50
2014,07,13,08,03,17.50
2014,07,13,08,04,17.60
2014,07,13,08,05,17.70
2014,07,13,08,06,17.70
2014,07,13,08,07,17.80
2014,07,13,08,08,17.80
2014,07,13,08,09,17.90
2014,07,13,08,10,17.90
2014,07,13,08,11,18.00
2014,07,13,08,12,18.10
2014,07,13,08,13,18.10
2014,07,13,08,14,18.20
2014,07,13,08,15,18.20
2014,07,13,08,16,18.30
2014,07,13,08,17,18.30
2014,07,13,08,18,18.40
2014,07,13,08,19,18.40
2014,07,13,08,20,18.50
2014,07,13,08,21,18.50
2014,07,13,08,22,18.60
2014,07,13,08,23,18.60
2014,07,13,08,24,18.70
2014,07,13,08,25,18.70
2014,07,13,08,26,18.80
2014,07,13,08,27,18.80
2014,07,13,08,28,18.90
2014,07,13,08,29,18.90
2014,07,13,08,30,18.90
2014,07,13,08,31,19.00
2014,07,13,08,32,19.10
2014,07,13,08,33,19.10
2014,07,13,08,34,19.10
2014,07,13,08,35,19.20
2014,07,13,08,36,19.20
2014,07,13,08,37,19.30
2014,07,13,08,38,19.30
2014,07,13,08,39,19.40
2014,07,13,08,40,19.50
2014,07,13,08,41,19.60
2014,07,13,08,42,19.60
2014,07,13,08,43,19.70
2014,07,13,08,44,19.80
2014,07,13,08,45,19.90
2014,07,13,08,46,19.90
2014,07,13,08,47,20.10
2014,07,13,08,48,20.20
2014,07,13,08,49,20.20
2014,07,13,08,50,20.30
2014,07,13,08,51,20.40
2014,07,13,08,52,20.40
2014,07,13,08,53,20.50
2014,07,13,08,54,20.60
2014,07,13,08,55,20.60
2014,07,13,08,56,20.70
2014,07,13,08,57,20.80
2014,07,13,08,58,20.90
2014,07,13,08,59,21.00
2014,07,13,09,00,21.10
2014,07,13,09,01,21.10
2014,07,13,09,02,21.20
2014,07,13,09,03,21.30
2014,07,13,09,04,21.30
2014,07,13,09,05,21.30
2014,07,13,09,06,21.40
2014,07,13,09,07,21.40
2014,07,13,09,08,21.50
2014,07,13,09,09,21.60
2014,07,13,09,10,21.60
2014,07,13,09,11,21.60
2014,07,13,09,12,21.60
2014,07,13,09,13,21.70
2014,07,13,09,14,21.70
2014,07,13,09,15,21.80
2014,07,13,09,16,21.90
2014,07,13,09,17,22.00
2014,07,13,09,18,22.00
2014,07,13,09,19,22.10
2014,07,13,09,20,22.10
2014,07,13,09,21,22.20
2014,07,13,09,22,22.20
2014,07,13,09,23,22.30
2014,07,13,09,24,22.30
2014,07,13,09,25,22.40
2014,07,13,09,26,22.50
2014,07,13,09,27,22.60
2014,07,13,09,28,22.60
2014,07,13,09,29,22.70
2014,07,13,09,30,22.70
2014,07,13,09,31,22.80
2014,07,13,09,32,22.80
2014,07,13,09,33,22.90
2014,07,13,09,34,22.90
2014,07,13,09,35,22.90
2014,07,13,09,36,23.00
2014,07,13,09,37,23.10
2014,07,13,09,38,23.10
2014,07,13,09,39,23.20
2014,07,13,09,40,23.30
2014,07,13,09,41,23.30
2014,07,13,09,42,23.30
2014,07,13,09,43,23.40
2014,07,13,09,44,23.40
2014,07,13,09,45,23.50
2014,07,13,09,46,23.60
2014,07,13,09,47,23.70
2014,07,13,09,48,23.70
2014,07,13,09,49,23.80
2014,07,13,09,50,23.80
2014,07,13,09,51,23.90
2014,07,13,09,52,24.00
2014,07,13,09,53,24.10
2014,07,13,09,54,24.10
2014,07,13,09,55,24.10
2014,07,13,09,56,24.10
2014,07,13,09,57,24.20
2014,07,13,09,58,24.20
2014,07,13,09,59,24.30
2014,07,13,10,00,24.30
2014,07,13,10,01,24.30
2014,07,13,10,02,24.40
2014,07,13,10,03,24.40
2014,07,13,10,04,24.50
2014,07,13,10,05,24.50
2014,07,13,10,06,24.50
2014,07,13,10,07,24.60
2014,07,13,10,08,24.60
2014,07,13,10,09,24.60
2014,07,13,10,10,24.70
2014,07,13,10,11,24.70
2014,07,13,10,12,24.80
2014,07,13,10,13,24.80
2014,07,13,10,14,24.80
2014,07,13,10,15,24.90
2014,07,13,10,16,24.90
2014,07,13,10,17,24.90
2014,07,13,10,18,25.00
2014,07,13,10,19,25.00
2014,07,13,10,20,25.10
2014,07,13,10,21,25.10
2014,07,13,10,22,25.10
2014,07,13,10,23,25.10
2014,07,13,10,24,25.10
2014,07,13,10,25,25.10
2014,07,13,10,26,25.10
2014,07,13,10,27,25.10
2014,07,13,10,28,25.10
2014,07,13,10,29,25.10
2014,07,13,10,30,25.10
2014,07,13,10,31,25.10
2014,07,13,10,32,25.10
2014,07,13,10,33,25.10
2014,07,13,10,34,25.20
2014,07,13,10,35,25.20
2014,07,13,10,36,25.20
2014,07,13,10,37,25.20
2014,07,13,10,38,25.20
2014,07,13,10,39,25.20
2014,07,13,10,40,25.20
2014,07,13,10,41,25.20
2014,07,13,10,42,25.20
2014,07,13,10,43,25.20
2014,07,13,10,44,25.20
2014,07,13,10,45,25.20
2014,07,13,10,46,25.20
2014,07,13,10,47,25.20
2014,07,13,10,48,25.20
2014,07,13,10,49,25.20
2014,07,13,10,50,25.20
2014,07,13,10,51,25.20
2014,07,13,10,52,25.20
2014,07,13,10,53,25.20
2014,07,13,10,54,25.20
2014,07,13,10,55,25.20
2014,07,13,10,56,25.20
2014,07,13,10,57,25.30
2014,07,13,10,58,25.30
2014,07,13,10,59,25.30
2014,07,13,11,00,25.30
2014,07,13,11,01,25.30
2014,07,13,11,02,25.40
2014,07,13,11,03,25.40
2014,07,13,11,04,25.40
2014,07,13,11,05,25.50
2014,07,13,11,06,25.50
2014,07,13,11,07,25.50
2014,07,13,11,08,25.60
2014,07,13,11,09,25.60
2014,07,13,11,10,25.60
2014,07,13,11,11,25.70
2014,07,13,11,12,25.70
2014,07,13,11,13,25.70
2014,07,13,11,14,25.70
2014,07,13,11,15,25.70
2014,07,13,11,16,25.70
2014,07,13,11,17,25.70
2014,07,13,11,18,25.70
2014,07,13,11,19,25.70
2014,07,13,11,20,25.70
2014,07,13,11,21,25.70
2014,07,13,11,22,25.70
2014,07,13,11,23,25.80
2014,07,13,11,24,25.80
2014,07,13,11,25,25.80
2014,07,13,11,26,25.80
2014,07,13,11,27,25.80
2014,07,13,11,28,25.90
2014,07,13,11,29,25.90
2014,07,13,11,30,25.90
2014,07,13,11,31,25.90
2014,07,13,11,32,25.90
2014,07,13,11,33,25.90
2014,07,13,11,34,26.00
2014,07,13,11,35,26.00
2014,07,13,11,36,26.00
2014,07,13,11,37,26.00
2014,07,13,11,38,26.00
2014,07,13,11,39,26.00
2014,07,13,11,40,26.00
2014,07,13,11,41,26.00
2014,07,13,11,42,26.00
2014,07,13,11,43,26.00
2014,07,13,11,44,26.00
2014,07,13,11,45,26.00
2014,07,13,11,46,26.00
2014,07,13,11,47,26.00
2014,07,13,11,48,26.00
2014,07,13,11,49,26.00
2014,07,13,11,50,26.00
2014,07,13,11,51,26.10
2014,07,13,11,52,26.10
2014,07,13,11,53,26.10
2014,07,13,11,54,26.10
2014,07,13,11,55,26.10
2014,07,13,11,56,26.10
2014,07,13,11,57,26.10
2014,07,13,11,58,26.00
2014,07,13,11,59,26.00
2014,07,13,12,00,26.00
2014,07,13,12,01,25.90
2014,07,13,12,02,25.90
2014,07,13,12,03,25.80
2014,07,13,12,04,25.80
2014,07,13,12,05,25.80
2014,07,13,12,06,25.70
2014,07,13,12,07,25.70
2014,07,13,12,08,25.60
2014,07,13,12,09,25.60
2014,07,13,12,10,25.50
2014,07,13,12,11,25.40
2014,07,13,12,12,25.40
2014,07,13,12,13,25.30
2014,07,13,12,14,25.30
2014,07,13,12,15,25.20
2014,07,13,12,16,25.20
2014,07,13,12,17,25.10
2014,07,13,12,18,25.10
2014,07,13,12,19,25.00
2014,07,13,12,20,25.00
2014,07,13,12,21,25.00
2014,07,13,12,22,25.00
2014,07,13,12,23,25.00
2014,07,13,12,24,25.00
2014,07,13,12,25,25.00
2014,07,13,12,26,25.00
2014,07,13,12,27,25.00
2014,07,13,12,28,25.00
2014,07,13,12,29,25.00
2014,07,13,12,30,25.00
2014,07,13,12,31,25.00
2014,07,13,12,32,25.10
2014,07,13,12,33,25.10
2014,07,13,12,34,25.20
2014,07,13,12,35,25.20
2014,07,13,12,36,25.20
2014,07,13,12,37,25.30
2014,07,13,12,38,25.40
2014,07,13,12,39,25.40
2014,07,13,12,40,25.50
2014,07,13,12,41,25.60
2014,07,13,12,42,25.60
2014,07,13,12,43,25.60
2014,07,13,12,44,25.70
2014,07,13,12,45,25.70
2014,07,13,12,46,25.80
2014,07,13,12,47,25.80
2014,07,13,12,48,25.80
2014,07,13,12,49,25.90
2014,07,13,12,50,25.90
2014,07,13,12,51,26.00
2014,07,13,12,52,26.10
2014,07,13,12,53,26.20
2014,07,13,12,54,26.30
2014,07,13,12,55,26.30
2014,07,13,12,56,26.40
2014,07,13,12,57,26.40
2014,07,13,12,58,26.50
2014,07,13,12,59,26.60
2014,07,13,13,00,26.60
2014,07,13,13,01,26.60
2014,07,13,13,02,26.60
2014,07,13,13,03,26.60
2014,07,13,13,04,26.60
2014,07,13,13,05,26.70
2014,07,13,13,06,26.80
2014,07,13,13,07,27.00
2014,07,13,13,08,27.10
2014,07,13,13,09,27.20
2014,07,13,13,10,27.30
2014,07,13,13,11,27.30
2014,07,13,13,12,27.50
2014,07,13,13,13,27.60
2014,07,13,13,14,27.70
2014,07,13,13,15,27.80
2014,07,13,13,16,27.90
2014,07,13,13,17,28.10
2014,07,13,13,18,28.20
2014,07,13,13,19,28.40
2014,07,13,13,20,28.60
2014,07,13,13,21,28.70
2014,07,13,13,22,28.90
2014,07,13,13,23,29.00
2014,07,13,13,24,29.10
2014,07,13,13,25,29.30
2014,07,13,13,26,29.40
2014,07,13,13,27,29.50
2014,07,13,13,28,29.70
2014,07,13,13,29,29.70
2014,07,13,13,30,29.80
2014,07,13,13,31,29.80
2014,07,13,13,32,29.70
2014,07,13,13,33,29.70
2014,07,13,13,34,29.70
2014,07,13,13,35,29.80
2014,07,13,13,36,29.90
2014,07,13,13,37,30.00
2014,07,13,13,38,30.10
2014,07,13,13,39,30.20
2014,07,13,13,40,30.30
2014,07,13,13,41,30.40
2014,07,13,13,42,30.60
2014,07,13,13,43,30.70
2014,07,13,13,44,30.80
2014,07,13,13,45,30.80
2014,07,13,13,46,31.00
2014,07,13,13,47,31.10
2014,07,13,13,48,31.10
2014,07,13,13,49,31.20
2014,07,13,13,50,31.30
2014,07,13,13,51,31.40
2014,07,13,13,52,31.50
2014,07,13,13,53,31.70
2014,07,13,13,54,31.80
2014,07,13,13,55,32.00
2014,07,13,13,56,32.10
2014,07,13,13,57,32.20
2014,07,13,13,58,32.40
2014,07,13,13,59,32.50
2014,07,13,14,00,32.70
2014,07,13,14,01,32.80
2014,07,13,14,02,33.00
2014,07,13,14,03,33.00
2014,07,13,14,04,33.10
2014,07,13,14,05,33.10
2014,07,13,14,06,33.20
2014,07,13,14,07,33.20
2014,07,13,14,08,33.20
2014,07,13,14,09,33.20
2014,07,13,14,10,33.10
2014,07,13,14,11,33.00
2014,07,13,14,12,32.80
2014,07,13,14,13,32.70
2014,07,13,14,14,32.40
2014,07,13,14,15,32.30
2014,07,13,14,16,32.10
2014,07,13,14,17,32.00
2014,07,13,14,18,31.90
2014,07,13,14,19,31.80
2014,07,13,14,20,31.70
2014,07,13,14,21,31.70
2014,07,13,14,22,31.70
2014,07,13,14,23,31.80
2014,07,13,14,24,31.80
2014,07,13,14,25,31.90
2014,07,13,14,26,32.00
2014,07,13,14,27,32.10
2014,07,13,14,28,32.10
2014,07,13,14,29,32.10
2014,07,13,14,30,32.10
2014,07,13,14,31,32.10
2014,07,13,14,32,32.10
2014,07,13,14,33,32.00
2014,07,13,14,34,31.90
2014,07,13,14,35,31.80
2014,07,13,14,36,31.70
2014,07,13,14,37,31.50
2014,07,13,14,38,31.40
2014,07,13,14,39,31.20
2014,07,13,14,40,31.10
2014,07,13,14,41,31.00
2014,07,13,14,42,30.90
2014,07,13,14,43,30.80
2014,07,13,14,44,30.70
2014,07,13,14,45,30.70
2014,07,13,14,46,30.70
2014,07,13,14,47,30.70
2014,07,13,14,48,30.80
2014,07,13,14,49,30.90
2014,07,13,14,50,31.00
2014,07,13,14,51,31.10
2014,07,13,14,52,31.20
2014,07,13,14,53,31.20
2014,07,13,14,54,31.30
2014,07,13,14,55,31.30
2014,07,13,14,56,31.40
2014,07,13,14,57,31.40
2014,07,13,14,58,31.40
2014,07,13,14,59,31.40
2014,07,13,15,00,31.40
2014,07,13,15,01,31.40
2014,07,13,15,02,31.40
2014,07,13,15,03,31.40
2014,07,13,15,04,31.40
2014,07,13,15,05,31.40
2014,07,13,15,06,31.40
2014,07,13,15,07,31.40
2014,07,13,15,08,31.40
2014,07,13,15,09,31.40
2014,07,13,15,10,31.30
2014,07,13,15,11,31.30
2014,07,13,15,12,31.20
2014,07,13,15,13,31.20
2014,07,13,15,14,31.10
2014,07,13,15,15,31.00
2014,07,13,15,16,31.00
2014,07,13,15,17,30.90
2014,07,13,15,18,30.80
2014,07,13,15,19,30.80
2014,07,13,15,20,30.70
2014,07,13,15,21,30.70
2014,07,13,15,22,30.70
2014,07,13,15,23,30.60
2014,07,13,15,24,30.60
2014,07,13,15,25,30.50
2014,07,13,15,26,30.40
2014,07,13,15,27,30.40
2014,07,13,15,28,30.30
2014,07,13,15,29,30.20
2014,07,13,15,30,30.10
2014,07,13,15,31,30.00
2014,07,13,15,32,29.90
2014,07,13,15,33,29.80
2014,07,13,15,34,29.80
2014,07,13,15,35,29.70
2014,07,13,15,36,29.70
2014,07,13,15,37,29.60
2014,07,13,15,38,29.60
2014,07,13,15,39,29.50
2014,07,13,15,40,29.50
2014,07,13,15,41,29.40
2014,07,13,15,42,29.40
2014,07,13,15,43,29.40
2014,07,13,15,44,29.40
2014,07,13,15,45,29.40
2014,07,13,15,46,29.40
2014,07,13,15,47,29.40
2014,07,13,15,48,29.40
2014,07,13,15,49,29.40
2014,07,13,15,50,29.40
2014,07,13,15,51,29.30
2014,07,13,15,52,29.30
2014,07,13,15,53,29.30
2014,07,13,15,54,29.30
2014,07,13,15,55,29.30
2014,07,13,15,56,29.40
2014,07,13,15,57,29.40
2014,07,13,15,58,29.40
2014,07,13,15,59,29.40
2014,07,13,16,00,29.40
2014,07,13,16,01,29.40
2014,07,13,16,02,29.40
2014,07,13,16,03,29.40
2014,07,13,16,04,29.40
2014,07,13,16,05,29.30
2014,07,13,16,06,29.30
2014,07,13,16,07,29.30
2014,07,13,16,08,29.30
2014,07,13,16,09,29.30
2014,07,13,16,10,29.20
2014,07,13,16,11,29.20
2014,07,13,16,12,29.20
2014,07,13,16,13,29.10
2014,07,13,16,14,29.10
2014,07,13,16,15,29.10
2014,07,13,16,16,28.90
2014,07,13,16,17,28.90
2014,07,13,16,18,28.90
2014,07,13,16,19,28.90
2014,07,13,16,20,28.90
2014,07,13,16,21,28.90
2014,07,13,16,22,28.90
2014,07,13,16,23,28.80
2014,07,13,16,24,28.80
2014,07,13,16,25,28.80
2014,07,13,16,26,28.80
2014,07,13,16,27,28.80
2014,07,13,16,28,28.80
2014,07,13,16,29,28.80
2014,07,13,16,30,28.80
2014,07,13,16,31,28.80
2014,07,13,16,32,28.80
2014,07,13,16,33,28.80
2014,07,13,16,34,28.80
2014,07,13,16,35,28.80
2014,07,13,16,36,28.80
2014,07,13,16,37,28.70
2014,07,13,16,38,28.70
2014,07,13,16,39,28.70
2014,07,13,16,40,28.70
2014,07,13,16,41,28.70
2014,07,13,16,42,28.80
2014,07,13,16,43,28.80
2014,07,13,16,44,28.80
2014,07,13,16,45,28.80
2014,07,13,16,46,28.80
2014,07,13,16,47,28.80
2014,07,13,16,48,28.90
2014,07,13,16,49,28.90
2014,07,13,16,50,28.90
2014,07,13,16,51,28.90
2014,07,13,16,52,28.90
2014,07,13,16,53,28.90
2014,07,13,16,54,28.90
2014,07,13,16,55,28.90
2014,07,13,16,56,28.90
2014,07,13,16,57,28.90
2014,07,13,16,58,28.90
2014,07,13,16,59,28.90
2014,07,13,17,00,29.00
2014,07,13,17,01,29.10
2014,07,13,17,02,29.10
2014,07,13,17,03,29.20
2014,07,13,17,04,29.20
2014,07,13,17,05,29.20
2014,07,13,17,06,29.30
2014,07,13,17,07,29.30
2014,07,13,17,08,29.30
2014,07,13,17,09,29.40
2014,07,13,17,10,29.40
2014,07,13,17,11,29.40
2014,07,13,17,12,29.40
2014,07,13,17,13,29.40
2014,07,13,17,14,29.40
2014,07,13,17,15,29.40
2014,07,13,17,16,29.40
2014,07,13,17,17,29.40
2014,07,13,17,18,29.40
2014,07,13,17,19,29.40